FW1786 Weather Reports


Display with metric or nautical units.
time (UTC)temp
F
wind
direction
speed
MPH
gust
MPH
rain 1hr
in
rain 24hr
in
rain mn
in
humidity
%
barometer
mb
20260502163018 63 217 4.0 11.0 0.00 0.00 0.00 39 1021.1
20260502161514 62 49 2.0 9.0 0.00 0.00 0.00 37 1021.0
20260502151524 58 103 2.0 10.0 0.00 0.00 0.00 43 1021.2
20260502123022 42 192 0.0 2.0 0.00 0.00 0.00 89 1020.2
20260502121524 41 167 1.0 3.0 0.00 0.00 0.00 90 1020.0
20260502114520 40 206 0.0 1.0 0.00 0.00 0.00 90 1019.4
20260502113019 41 206 0.0 1.0 0.00 0.00 0.00 89 1019.4
20260502111516 41 202 0.0 1.0 0.00 0.00 0.00 88 1019.2
20260502110019 41 180 0.0 2.0 0.00 0.00 0.00 87 1019.1
20260502104538 41 186 0.0 3.0 0.00 0.00 0.00 87 1019.1
20260502103025 41 165 1.0 2.0 0.00 0.00 0.00 86 1019.0
20260502101524 41 190 1.0 4.0 0.00 0.00 0.00 85 1018.9
20260502091524 41 183 0.0 2.0 0.00 0.00 0.00 85 1018.7
20260502071510 42 212 0.0 2.0 0.00 0.00 0.00 86 1018.5
20260502070009 42 193 0.0 2.0 0.00 0.00 0.00 85 1018.5
20260502064515 42 194 0.0 2.0 0.00 0.00 0.00 85 1018.6
20260502063007 42 190 0.0 2.0 0.00 0.00 0.00 85 1018.7
20260502061515 42 182 0.0 1.0 0.00 0.00 0.00 86 1018.7
20260502060016 42 182 0.0 0.0 0.00 0.00 0.00 85 1018.7
20260502054518 43 182 0.0 0.0 0.00 0.00 0.00 83 1018.8
20260502053008 44 182 0.0 1.0 0.00 0.00 0.00 81 1018.8
20260502051529 45 182 0.0 3.0 0.00 0.00 0.00 81 1018.8
20260502050016 45 184 0.0 2.0 0.00 0.00 0.00 80 1018.8
20260502044515 46 183 0.0 3.0 0.00 0.00 0.00 79 1018.7
20260502043018 46 184 0.0 4.0 0.00 0.00 0.00 78 1018.7
20260502041512 47 184 1.0 3.0 0.00 0.00 0.00 77 1018.9
20260502040014 47 194 1.0 4.0 0.00 0.00 0.00 76 1018.8
20260502034534 48 185 1.0 3.0 0.00 0.00 0.00 74 1019.1
20260502033025 49 178 0.0 4.0 0.00 0.00 0.00 73 1018.9
20260502031521 49 192 0.0 2.0 0.00 0.00 0.00 72 1019.0
20260502030012 50 187 0.0 2.0 0.00 0.00 0.00 70 1018.9
20260502024516 50 189 1.0 3.0 0.00 0.00 0.00 70 1018.8
20260502023016 51 198 1.0 3.0 0.00 0.00 0.00 67 1018.7
20260502021519 52 205 0.0 1.0 0.00 0.00 0.00 65 1018.6
20260502020008 53 209 0.0 1.0 0.00 0.00 0.00 62 1018.3
20260502014513 52 209 0.0 1.0 0.00 0.00 0.00 63 1018.3
20260502013012 53 209 0.0 1.0 0.00 0.00 0.00 61 1018.1
20260502011525 54 209 0.0 1.0 0.00 0.00 0.00 56 1018.0
20260502010007 56 210 0.0 1.0 0.00 0.00 0.00 53 1017.6
20260502004513 58 210 0.0 0.0 0.00 0.00 0.00 48 1017.4
20260502003016 59 209 0.0 3.0 0.00 0.00 0.00 46 1017.2
20260502001508 61 14 0.0 3.0 0.00 0.00 0.00 38 1017.0
20260502000008 61 46 1.0 4.0 0.00 0.00 0.00 38 1016.8
20260501234511 62 289 1.0 3.0 0.00 0.00 0.00 39 1016.7
20260501233017 62 95 2.0 9.0 0.00 0.00 0.00 33 1016.7
20260501231532 63 15 2.0 10.0 0.00 0.00 0.00 32 1016.7
20260501230012 64 19 2.0 8.0 0.00 0.00 0.00 31 1016.9
20260501224507 64 90 1.0 9.0 0.00 0.00 0.00 1016.7
20260501223017 65 309 2.0 9.0 0.00 0.00 0.00 34 1016.4
20260501221520 65 45 2.0 9.0 0.00 0.00 0.00 32 1016.1
20260501220022 66 116 1.0 8.0 0.00 0.00 0.00 32 1016.1
20260501214529 65 342 2.0 9.0 0.00 0.00 0.00 33 1015.8
20260501213012 66 319 2.0 9.0 0.00 0.00 0.00 32 1015.7
20260501211518 66 83 3.0 9.0 0.00 0.00 0.00 31 1015.7
20260501210024 66 350 2.0 9.0 0.00 0.00 0.00 31 1016.1
20260501204526 66 76 2.0 8.0 0.00 0.00 0.00 28 1016.6
20260501203014 66 42 2.0 7.0 0.00 0.00 0.00 30 1017.1
20260501201512 66 20 1.0 5.0 0.00 0.00 0.00 29 1017.6
20260501200013 66 27 1.0 5.0 0.00 0.00 0.00 33 1017.8
20260501194515 65 82 1.0 4.0 0.00 0.00 0.00 40 1018.1
20260501193026 65 49 1.0 5.0 0.00 0.00 0.00 33 1018.3
20260501191514 65 75 1.0 4.0 0.00 0.00 0.00 37 1018.6
20260501190018 63 346 1.0 4.0 0.00 0.00 0.00 32 1018.6
20260501184519 64 331 3.0 7.0 0.00 0.00 0.00 34 1018.9
20260501183021 64 352 1.0 6.0 0.00 0.00 0.00 37 1019.2
20260501181523 64 49 2.0 4.0 0.00 0.00 0.00 46 1019.4
20260501180020 62 352 1.0 7.0 0.00 0.00 0.00 43 1019.3
20260501174523 62 22 2.0 7.0 0.00 0.00 0.00 44 1019.5
20260501173033 62 5 1.0 4.0 0.00 0.00 0.00 45 1019.6
20260501171530 61 134 1.0 10.0 0.00 0.00 0.00 49 1019.8